Regional Weather Roundup
Issued by NWS Portland, ME

Current Version | Previous Version | Text Only | Print | Product List | Glossary Off
Versions: 1 2 3 4 5 6 7 8 9 10 11 12 13 14 15 16 17 18 19 20 21 22 23 24 25 26 27 28 29 30 31 32 33 34 35 36 37 38 39 40 41 42 43 44 45 46 47 48 49 50
958 ASUS41 KGYX 250710 RWRGYX WEATHER ROUNDUP FOR MAINE AND NEW HAMPSHIRE NATIONAL WEATHER SERVICE GRAY ME 300 AM EDT SAT MAR 25 2017 MEZ002-005-006-010-012-015-018-020-021-024-026-027-029-250800- MAINE CITY SKY/WX TMP DP RH WIND PRES REMARKS PORTLAND CLOUDY 34 31 88 NW5 30.05F SANFORD CLOUDY 35 33 92 NE5 30.05S BAR HARBOR CLOUDY 32 31 96 N3 30.04S WISCASSET CLOUDY 33 32 96 CALM 30.08R FOG ROCKLAND CLOUDY 33 31 92 NW7 30.05R FRYEBURG CLOUDY 29 27 92 CALM 30.06S LEWISTONAUBURN CLOUDY 31 30 96 N3 30.06F AUGUSTA CLOUDY 30 28 92 N5 30.05S WATERVILLE CLOUDY 28 26 92 CALM 30.03R BANGOR MOCLDY 29 27 92 NW7 30.04F GREENVILLE N/A 26 25 96 NW13G18 29.98R WCI 15 MILLINOCKET CLOUDY 27 25 92 CALM 30.03R HOULTON CLOUDY 27 25 92 CALM 29.99S PRESQUE ISLE CLOUDY 28 23 81 W6 30.00S FRENCHVILLE CLOUDY 27 20 75 W9 29.96R CARIBOU CLOUDY 28 21 75 W3 29.98R $$ NHZ002-005-008-009-011-012-014-250800- NEW HAMPSHIRE CITY SKY/WX TMP DP RH WIND PRES REMARKS PORTSMOUTH CLOUDY 34 33 97 CALM 30.05S FOG ROCHESTER CLOUDY 34 32 92 VRB3 30.03F NASHUA CLOUDY 36 35 96 CALM 30.06S FOG MANCHESTER CLOUDY 35 32 88 N3 30.04S CONCORD CLOUDY 34 31 88 CALM 30.06S FOG LACONIA CLOUDY 32 31 96 CALM 30.06S FOG PLYMOUTH CLOUDY 32 31 98 CALM 30.07R FOG BERLIN CLOUDY 29 25 85 CALM 30.05R WHITEFIELD CLOUDY 30 26 85 CALM 30.06R JAFFREY CLOUDY 36 32 85 CALM 30.05R KEENE MIX PCPN 35 33 92 NE3 30.06S LEBANON LGT RAIN 34 33 96 CALM 30.08R FOG MT WASHINGTON BLWGSNOW 18 18 100 NW51 N/A VSB 0 WCI -6 $$ VTZ005-007-008-250800- VERMONT CITY SKY/WX TMP DP RH WIND PRES REMARKS ST JOHNSBURY N/A 30 29 96 MISG 30.08R MONTPELIER CLOUDY 31 31 100 N5 30.12R BURLINGTON CLOUDY 34 31 88 N7 30.14R $$ MAZ007-012-024-CTZ003-RIZ002-NYZ038-NYZ072-250800- SOUTHERN NEW ENGLAND AND NY CITY SKY/WX TMP DP RH WIND PRES REMARKS BOSTON MOCLDY 45 33 63 SW6 30.06F WORCESTER PTCLDY 41 31 67 W8 30.03S NANTUCKET CLOUDY 43 39 86 SW20 30.06F PROVIDENCE PTCLDY 43 34 70 CALM 30.08R HARTFORD MOCLDY 36 32 85 NW5 30.08R ALBANY LGT RAIN 39 33 79 N3 30.10S NEW YORK CITY MOCLDY 55 34 45 SW9 30.07F $$ ANZ081-ANZ082-ANZ150-NHZ014-MEZ023>029-250800- COASTAL MARINE OBSERVATIONS STATION/POSITION TIME TEMP WIND PRES WAVE AIR SEA DIR/SP/G HT/PER (UTC) (F) (DEG/KT/KT) (MB) (FT/S) MOUNT DESERT ROC 0700 35 1016.5F MATINICUS ROCK 0600 35 320/ 15/ 16 1016.8R ISLE OF SHOALS 0600 36 300/ 7/ 8 1017.8S JEFFREYS LEDGE 0606 40 N/A 4/ 6 CASHES LEDGE BUO 0650 38 40 1017.5R 4/ 7 GEORGES BANK BUO 0650 45 41 1018.2F 5/ 6 $$ .............KEY.............. WCI - WIND CHILL TC - TEMPERATURE IN CELSIUS VSB - VISIBILITY IN MILES HX - HEAT INDEX FAIR- INDICATES FEW OR NO CLOUDS BELOW 12,000 FT, WITH NO SIGNIFICANT WEATHER AND/OR OBSTRUCTIONS TO VISIBILITY.

USA.gov is the U.S. government's official web portal to all federal, state and local government web resources and services.